Temp
14 14 14 13 13 12 13 13 13 13 13 13 13 13 14 13 13 14 14 13 13 13 13 12 12 12 12 13 13 13 13 13 13 13 13 13 13 12 12 12 12 12 12
14 14 13 12 12 12 11 12 12 12 13 12 13 13 13 13 13 13 13 13 13 12 12 12 13 13 12 12 12 12 12 12 13 13 12 12 12 11 11 11 11 12 12
13 12 13 12 12 13 13 12 12 12 11 12 12 12 12 12 12 12 12 12 12 12 11 11 11 11 11 11 11 12 12 12 12 12 12 11 11 11 11 10 11 11 11
12 13 13 13 13 13 12 11 11 11 11 11 11 11 11 11 11 11 11 11 11 11 11 11 10 10 10 9 10 11 11 11 11 11 10 10 10 11 11 11 10 10 10
11 13 13 13 13 12 12 11 10 10 11 11 11 11 11 11 11 10 10 11 10 10 10 10 10 9 9 8 8 9 9 10 10 10 10 10 10 10 11 11 11 11 11
10 13 12 12 12 11 11 11 11 11 9 9 11 10 10 10 10 9 10 10 9 9 9 9 9 9 8 8 7 6 7 8 9 9 9 9 10 10 10 10 10 11 11
12 11 12 11 11 11 11 10 10 10 9 8 10 9 10 10 10 10 9 9 9 9 8 8 8 8 7 7 7 6 6 7 8 8 9 9 9 10 10 10 10 10 10
12 12 11 10 10 11 11 10 10 9 8 8 9 8 8 8 8 8 8 8 8 8 7 7 7 7 6 7 7 7 7 6 7 7 8 9 9 9 10 10 10 10 10
11 11 11 11 10 11 11 10 9 9 8 8 8 9 7 7 7 7 7 7 7 6 7 7 7 6 6 6 7 7 7 6 6 6 7 8 8 9 9 9 9 10 10
12 12 12 11 10 10 9 10 9 8 7 8 7 8 8 8 6 6 5 6 5 5 5 6 5 6 5 5 6 6 6 7 7 7 7 7 8 8 9 9 9 9 10
10 10 10 9 9 9 8 8 7 7 7 7 8 8 7 7 7 6 5 5 5 4 5 5 4 4 4 4 4 5 6 6 6 6 7 7 7 8 8 8 8 8 9
10 9 9 9 8 8 8 7 8 7 7 6 5 6 7 7 6 6 5 3 4 3 3 3 4 4 3 2 3 4 4 5 6 6 6 6 7 7 7 7 7 7 7
9 9 8 8 8 7 7 7 7 6 6 6 6 5 5 5 6 6 6 3 3 2 2 2 2 3 2 1 2 2 3 3 4 5 4 4 4 5 6 6 6 6 5
9 9 8 8 7 7 7 7 6 6 6 5 5 6 5 4 5 5 5 4 3 1 0 1 2 1 1 0 1 1 1 1 2 3 3 3 2 3 5 5 5 5 4
9 8 8 7 7 7 6 6 6 6 5 5 5 4 4 3 4 3 4 4 5 3 1 -1 1 0 -1 -1 -0 -1 -0 0 -1 -0 1 2 1 1 3 3 3 3 2
8 8 7 7 7 7 6 6 5 5 5 5 4 4 4 3 3 4 3 3 3 4 4 1 -1 -1 -3 -4 -2 -4 -3 -2 -2 -2 -2 -1 -0 0 1 1 0 0 0
8 7 7 7 6 6 6 5 5 5 5 4 4 3 3 3 2 2 3 2 2 2 3 -0 -1 -3 -4 -5 -4 -5 -4 -6 -5 -4 -4 -3 -2 -1 -0 -0 -1 -1 -1
8 7 7 6 6 5 5 5 4 4 3 3 3 2 2 2 2 2 2 1 0 1 1 -1 -2 -4 -4 -5 -6 -6 -7 -7 -8 -7 -6 -5 -4 -2 -2 -2 -2 -1 -1
8 7 6 6 5 5 5 5 4 3 3 3 2 1 1 1 -0 -1 -1 -1 -1 -1 -1 -1 -3 -4 -5 -6 -6 -7 -7 -7 -8 -8 -8 -7 -5 -4 -4 -3 -4 -3 -2
7 6 6 5 5 4 4 4 3 3 2 1 1 1 0 0 -1 -1 -1 -2 -1 -2 -2 -2 -3 -4 -6 -6 -7 -7 -7 -8 -8 -9 -9 -9 -7 -6 -5 -6 -5 -6 -4
6 6 5 5 4 4 3 3 3 2 1 0 -0 -1 -0 -0 -1 -1 -2 -2 -2 -2 -2 -4 -5 -6 -7 -6 -7 -7 -7 -8 -9 -9 -9 -9 -9 -9 -9 -8 -10 -7 -5
5 5 4 3 3 3 3 2 1 0 0 -0 -1 -1 -1 -2 -2 -2 -2 -2 -2 -3 -3 -4 -6 -6 -6 -6 -7 -7 -7 -8 -9 -10 -8 -9 -9 -9 -10 -11 -8 -8 -7
5 4 3 2 2 2 1 1 0 -1 -1 -2 -2 -3 -3 -3 -4 -3 -3 -3 -3 -4 -4 -5 -6 -6 -6 -7 -7 -7 -6 -7 -7 -9 -8 -9 -10 -10 -11 -12 -9 -9 -9
2 1 1 1 1 0 0 -0 -1 -1 -2 -3 -3 -4 -4 -5 -5 -5 -5 -5 -5 -5 -6 -7 -7 -7 -7 -7 -7 -7 -7 -7 -8 -10 -9 -10 -11 -12 -12 -11 -8 -8 -9
-1 -1 -1 -1 -1 -1 -2 -2 -3 -3 -3 -4 -4 -5 -5 -6 -5 -6 -7 -7 -7 -7 -7 -7 -7 -7 -6 -6 -8 -8 -7 -9 -10 -11 -10 -11 -12 -12 -11 -11 -9 -9 -9
-2 -1 -2 -2 -2 -2 -3 -3 -4 -5 -5 -5 -6 -6 -6 -6 -7 -8 -8 -8 -8 -8 -8 -7 -7 -7 -7 -7 -8 -9 -10 -9 -10 -11 -10 -11 -12 -11 -12 -13 -12 -12 -11
Height
1556 1557 1557 1559 1559 1559 1560 1560 1561 1562 1561 1561 1559 1559 1559 1559 1560 1561 1561 1562 1564 1564 1564 1565 1566 1566 1567 1569 1569 1569 1569 1570 1570 1570 1570 1570 1570 1570 1570 1571 1571 1572 1572
1553 1555 1556 1558 1557 1556 1556 1557 1558 1560 1560 1559 1559 1558 1557 1558 1559 1559 1560 1562 1563 1563 1563 1564 1565 1566 1567 1567 1567 1567 1567 1567 1567 1567 1567 1567 1566 1567 1567 1568 1568 1569 1570
1548 1549 1552 1553 1554 1553 1553 1554 1554 1556 1557 1557 1558 1558 1557 1558 1559 1559 1560 1560 1561 1561 1562 1563 1564 1565 1565 1565 1565 1564 1564 1563 1563 1563 1562 1563 1563 1564 1564 1565 1565 1566 1566
1546 1549 1550 1551 1551 1552 1552 1554 1556 1556 1558 1556 1556 1556 1557 1557 1556 1558 1559 1560 1559 1560 1561 1562 1563 1563 1564 1563 1562 1561 1560 1560 1559 1559 1559 1559 1560 1560 1560 1561 1561 1561 1562
1545 1548 1548 1549 1548 1549 1550 1550 1553 1553 1555 1554 1554 1555 1555 1555 1556 1557 1557 1558 1559 1560 1560 1560 1560 1561 1562 1562 1561 1560 1559 1557 1556 1556 1557 1557 1557 1557 1557 1557 1557 1557 1557
1549 1544 1547 1547 1547 1546 1547 1548 1549 1552 1554 1553 1552 1553 1553 1553 1554 1554 1556 1557 1558 1559 1560 1559 1559 1559 1560 1561 1561 1560 1558 1556 1555 1555 1555 1555 1555 1555 1555 1555 1554 1554 1553
1543 1544 1545 1547 1545 1545 1544 1545 1545 1548 1550 1551 1550 1551 1552 1552 1552 1553 1554 1554 1555 1556 1558 1558 1558 1558 1559 1559 1558 1558 1557 1556 1555 1555 1554 1553 1553 1553 1553 1552 1552 1552 1551
1538 1539 1543 1545 1543 1541 1540 1541 1542 1544 1545 1548 1551 1550 1550 1551 1548 1549 1551 1552 1553 1553 1555 1556 1557 1558 1557 1556 1556 1556 1555 1555 1554 1553 1552 1552 1552 1552 1551 1551 1551 1550 1549
1536 1536 1536 1537 1538 1538 1537 1538 1540 1539 1541 1544 1544 1548 1547 1546 1545 1546 1547 1547 1549 1551 1551 1553 1554 1555 1556 1554 1553 1553 1553 1553 1552 1551 1550 1550 1549 1549 1548 1548 1548 1547 1546
1531 1531 1532 1533 1536 1534 1534 1534 1536 1537 1538 1539 1542 1541 1540 1541 1544 1542 1543 1545 1545 1547 1548 1549 1550 1552 1552 1552 1551 1550 1550 1550 1549 1549 1548 1547 1547 1546 1546 1545 1545 1544 1543
1530 1531 1530 1531 1533 1532 1531 1532 1532 1533 1535 1536 1537 1539 1538 1538 1540 1540 1537 1539 1542 1543 1543 1544 1546 1548 1549 1549 1547 1547 1547 1546 1546 1545 1545 1545 1545 1544 1543 1543 1542 1540 1539
1528 1528 1530 1530 1529 1530 1530 1530 1530 1530 1531 1531 1533 1533 1535 1535 1536 1538 1537 1536 1537 1539 1541 1541 1542 1542 1545 1546 1544 1545 1545 1544 1542 1542 1541 1542 1542 1541 1541 1541 1539 1538 1536
1526 1526 1526 1527 1528 1529 1529 1529 1529 1529 1528 1527 1527 1529 1530 1531 1533 1533 1536 1532 1534 1534 1536 1538 1538 1538 1539 1541 1542 1543 1542 1542 1541 1539 1538 1538 1539 1539 1538 1538 1537 1535 1533
1525 1524 1524 1525 1525 1526 1527 1527 1526 1526 1525 1524 1523 1524 1525 1526 1528 1530 1531 1531 1533 1531 1530 1532 1533 1535 1535 1536 1537 1540 1539 1539 1539 1538 1537 1536 1536 1536 1535 1536 1534 1533 1530
1524 1523 1522 1522 1523 1523 1524 1524 1524 1523 1522 1521 1520 1519 1520 1521 1520 1522 1525 1526 1527 1527 1527 1527 1528 1529 1530 1531 1533 1535 1536 1536 1537 1536 1535 1534 1534 1534 1533 1533 1532 1530 1528
1522 1521 1520 1520 1519 1519 1520 1520 1520 1519 1519 1518 1517 1516 1516 1515 1515 1515 1517 1519 1522 1523 1522 1519 1523 1524 1527 1529 1529 1532 1532 1533 1535 1535 1534 1534 1532 1532 1530 1531 1531 1528 1526
1517 1517 1517 1517 1516 1516 1516 1516 1515 1514 1514 1513 1513 1512 1512 1511 1511 1511 1511 1513 1515 1518 1519 1515 1519 1519 1523 1526 1525 1528 1530 1533 1532 1533 1532 1532 1532 1530 1528 1529 1529 1527 1524
1511 1511 1511 1512 1512 1511 1511 1511 1510 1510 1509 1509 1508 1508 1507 1507 1506 1507 1508 1509 1511 1511 1513 1513 1514 1516 1519 1522 1523 1526 1531 1532 1532 1531 1531 1531 1530 1528 1526 1527 1527 1526 1523
1505 1505 1506 1507 1506 1506 1506 1505 1505 1505 1505 1505 1505 1503 1503 1502 1502 1504 1505 1506 1506 1507 1509 1510 1511 1513 1515 1519 1521 1524 1529 1530 1530 1531 1531 1530 1529 1525 1524 1525 1525 1523 1522
1501 1501 1499 1500 1500 1501 1500 1499 1499 1500 1500 1500 1500 1499 1498 1498 1499 1499 1501 1503 1502 1504 1505 1508 1509 1510 1509 1514 1518 1521 1525 1527 1528 1532 1533 1529 1527 1524 1523 1524 1523 1523 1520
1495 1495 1494 1494 1494 1494 1494 1494 1494 1493 1493 1494 1495 1495 1493 1493 1495 1495 1497 1497 1501 1501 1500 1504 1506 1506 1506 1507 1511 1516 1521 1523 1527 1529 1532 1530 1529 1528 1525 1523 1523 1521 1519
1489 1489 1488 1488 1488 1488 1489 1489 1488 1488 1489 1490 1490 1489 1489 1490 1489 1491 1492 1493 1496 1496 1495 1496 1499 1500 1502 1504 1507 1513 1517 1519 1521 1527 1530 1528 1528 1528 1526 1523 1520 1519 1519
1483 1482 1483 1482 1482 1482 1484 1483 1484 1484 1484 1486 1486 1486 1485 1486 1486 1487 1487 1487 1489 1490 1490 1491 1494 1497 1501 1502 1507 1511 1514 1519 1517 1525 1525 1525 1525 1526 1524 1520 1518 1519 1519
1474 1477 1478 1478 1477 1478 1479 1479 1479 1480 1481 1482 1482 1483 1482 1483 1483 1483 1482 1482 1483 1484 1484 1486 1489 1494 1497 1500 1506 1509 1512 1515 1516 1518 1521 1521 1520 1520 1520 1518 1516 1517 1518
1470 1472 1474 1475 1474 1475 1476 1476 1476 1477 1477 1478 1479 1480 1479 1479 1479 1478 1478 1478 1479 1479 1481 1483 1485 1489 1493 1496 1501 1505 1509 1509 1513 1510 1514 1514 1515 1515 1516 1516 1516 1517 1518
1469 1467 1471 1471 1471 1473 1473 1474 1474 1474 1474 1475 1476 1476 1476 1475 1475 1475 1475 1476 1476 1478 1479 1481 1483 1486 1489 1492 1495 1500 1504 1507 1508 1508 1509 1513 1511 1513 1516 1516 1517 1517 1517
Wind_Speed
12 11 11 7 6 5 6 6 7 6 5 8 10 9 8 8 8 7 7 7 8 10 12 11 9 8 9 9 9 8 7 9 11 12 12 13 13 13 15 15 16 15 15
12 8 5 4 5 5 5 5 5 4 4 4 6 7 8 8 13 11 10 10 12 15 14 12 10 9 9 9 10 11 11 12 15 15 16 16 16 15 14 13 14 15 15
11 7 6 6 6 7 7 7 8 6 6 6 7 8 9 10 12 12 11 11 23 16 18 12 9 9 10 9 10 11 13 15 16 15 15 14 14 16 16 14 13 14 15
6 6 6 6 5 4 4 3 3 4 6 5 8 10 9 10 17 11 12 15 17 15 14 12 9 9 9 10 11 12 12 11 9 8 8 9 9 10 12 15 18 20 20
3 4 5 5 4 5 4 5 4 5 8 10 12 12 12 13 17 13 17 17 15 14 14 13 11 10 8 6 5 5 5 5 5 6 6 6 7 8 9 11 13 15 17
5 4 4 4 4 5 5 6 7 7 6 8 12 12 13 17 17 19 13 16 15 12 11 8 9 8 6 4 4 2 3 5 5 5 4 6 7 7 8 8 9 10 11
6 2 3 3 3 5 7 7 8 10 8 11 12 14 15 17 19 21 18 18 16 14 11 9 8 7 5 6 6 6 5 6 6 5 6 7 7 7 7 7 8 9 9
12 6 2 3 5 7 7 9 10 9 10 14 9 11 12 14 18 19 20 19 17 15 13 10 11 9 8 9 8 8 9 7 5 6 8 8 8 9 8 8 8 9 11
6 6 6 11 14 15 15 13 14 13 11 14 16 11 6 9 18 18 20 20 19 17 17 16 15 12 12 12 11 10 10 10 9 10 10 9 8 8 8 7 8 9 12
4 7 14 15 15 14 13 13 14 14 16 14 16 19 16 6 11 13 21 21 20 21 20 19 16 15 15 16 14 13 12 12 12 12 11 11 9 8 7 7 7 10 14
3 5 3 4 7 9 10 10 11 12 14 14 16 16 18 14 11 8 17 25 24 23 24 22 19 16 15 16 16 14 13 13 13 13 12 11 10 9 7 7 8 11 12
2 3 5 6 7 7 7 8 9 11 14 14 14 15 17 17 15 15 9 15 23 24 24 24 22 20 16 16 18 14 14 14 14 13 12 11 10 9 8 8 8 8 10
4 5 5 7 8 8 7 8 8 8 10 12 14 14 15 17 18 15 15 11 14 22 24 24 24 23 20 16 17 13 12 12 13 13 11 9 8 9 8 7 5 7 7
7 8 7 7 9 9 9 8 7 8 9 9 10 13 15 14 16 18 18 14 11 10 18 22 26 25 23 20 19 14 13 12 11 11 11 9 7 7 7 6 6 5 4
11 10 9 9 11 12 13 13 13 12 12 12 10 11 11 11 16 16 18 18 18 13 18 18 19 24 22 21 19 13 12 12 11 11 10 11 8 6 6 3 1 1 4
12 12 13 13 14 13 14 13 13 13 13 14 14 12 12 14 16 17 18 16 19 21 16 18 17 20 20 17 18 15 14 11 11 10 11 8 7 7 6 5 6 7 8
13 15 16 16 16 16 15 14 13 13 14 14 14 13 13 13 14 14 16 17 16 15 12 12 15 17 20 18 18 17 13 9 8 10 10 8 7 6 6 7 6 6 7
14 15 17 17 18 17 17 17 16 16 15 14 15 13 13 13 13 13 13 12 11 13 13 14 15 18 21 18 17 17 12 10 8 7 6 8 7 6 7 7 6 4 6
14 15 16 18 19 19 19 19 18 17 16 15 16 14 12 11 9 7 8 6 6 10 10 14 15 17 20 18 17 15 14 15 13 8 6 6 5 5 7 6 5 3 3
15 16 18 19 19 20 20 19 18 18 19 17 15 15 15 14 12 11 10 8 11 8 9 13 17 18 21 19 17 16 17 16 13 10 13 7 4 4 5 5 4 3 2
17 18 19 20 20 19 19 18 17 18 18 17 15 15 15 16 16 16 12 13 13 13 14 11 13 17 19 24 24 20 17 14 15 9 8 6 4 5 5 1 5 3 3
19 19 20 19 19 19 17 16 16 17 16 17 16 15 16 16 16 17 17 16 17 17 17 16 16 17 19 21 23 20 19 19 15 17 12 8 7 6 6 3 6 5 5
19 17 16 16 16 16 13 13 13 14 15 16 15 13 14 15 14 16 16 16 17 17 20 16 14 14 15 18 19 20 20 21 14 15 14 11 9 8 5 3 6 5 5
14 13 13 13 12 11 11 12 12 14 15 15 15 15 15 15 16 15 15 17 17 18 19 18 14 14 15 17 19 19 17 17 15 16 13 12 14 10 7 4 4 5 3
11 10 12 11 10 10 10 10 12 12 13 13 14 14 15 16 18 17 15 13 13 16 17 18 18 18 18 18 19 19 20 19 17 15 22 13 14 10 8 5 4 4 2
8 8 10 10 8 9 9 10 9 10 10 11 12 13 14 15 13 10 11 10 10 10 12 15 18 18 18 20 23 22 20 16 12 11 22 11 13 11 5 5 4 3 2
Wind_Direction
226 233 238 243 240 251 247 244 243 248 267 258 256 256 255 238 217 216 196 182 190 179 188 212 226 223 199 217 228 241 243 256 264 263 261 261 256 247 244 243 243 245 245
228 233 238 243 250 246 240 227 218 226 225 226 238 238 236 224 209 208 215 208 198 169 169 188 226 237 237 240 257 266 271 271 270 272 268 261 253 251 247 245 242 250 252
205 219 225 244 257 266 258 245 239 218 232 244 219 221 236 235 220 204 202 211 172 191 181 212 250 271 272 276 278 280 281 279 280 277 272 266 258 252 245 245 244 245 249
195 253 266 265 271 265 249 232 224 212 205 180 221 219 218 235 204 227 211 185 168 194 206 214 251 265 278 283 288 286 282 281 275 269 261 257 254 249 245 243 244 244 249
39 312 309 292 278 263 243 225 222 200 223 203 226 225 221 225 216 213 199 196 201 200 208 235 249 256 254 254 266 268 268 265 255 245 237 230 234 235 237 239 240 242 244
340 20 339 309 278 254 249 236 230 228 202 193 223 219 223 210 195 194 216 222 217 225 233 230 245 243 233 228 239 254 261 262 252 243 226 226 232 245 250 252 255 258 260
269 346 340 303 278 250 253 242 237 233 216 215 229 213 204 203 212 221 220 219 223 224 228 235 248 252 238 237 224 220 255 256 249 239 239 242 247 255 262 265 266 267 270
219 208 258 319 320 301 276 262 251 228 213 213 223 205 199 206 210 212 223 229 226 223 223 235 251 254 252 254 252 253 251 256 261 249 251 257 263 266 271 275 273 278 285
205 217 258 293 314 307 291 276 260 241 224 225 210 216 203 222 211 213 213 211 215 221 229 234 231 241 258 263 263 260 264 256 254 255 263 270 268 272 284 286 292 300 303
236 243 248 245 257 252 260 257 254 244 225 224 232 226 224 220 198 211 218 219 222 223 224 223 226 236 250 258 261 265 264 260 261 265 268 269 266 272 277 280 291 303 309
273 273 272 264 284 294 285 272 259 249 245 234 229 235 235 234 228 225 220 221 222 222 222 225 226 228 233 253 255 252 254 258 257 257 259 259 262 271 277 287 301 308 314
249 256 268 300 307 306 295 288 278 265 255 249 243 235 239 234 237 232 227 225 224 228 230 229 228 230 231 237 246 250 255 257 254 249 253 255 258 262 274 287 303 314 328
247 261 284 307 312 302 306 304 300 291 278 265 256 251 247 242 243 239 241 206 217 229 230 231 229 229 227 237 245 245 247 246 250 246 232 234 249 266 272 280 294 318 332
264 275 285 301 301 282 268 269 271 276 279 283 276 264 249 245 240 240 242 223 222 220 228 235 233 231 230 228 240 248 247 238 236 242 242 234 216 238 250 254 284 325 9
264 263 268 277 289 281 276 276 276 280 285 284 278 271 259 252 248 240 235 235 237 223 223 223 227 227 222 226 231 231 238 234 223 225 230 228 213 189 206 204 232 75 55
265 262 264 272 275 279 276 273 277 283 295 295 294 287 276 267 263 256 246 239 240 243 258 207 218 226 210 200 216 210 221 221 225 220 222 216 208 188 181 154 116 95 79
265 260 265 267 266 270 272 272 272 277 286 286 290 293 292 287 270 262 257 247 235 235 233 191 197 212 199 193 202 204 210 204 204 209 212 215 217 206 193 171 153 126 97
273 266 266 262 265 263 260 261 262 267 271 279 280 283 284 287 281 269 259 243 236 224 211 196 199 197 195 186 192 196 183 180 199 199 204 198 188 187 172 173 167 142 118
270 271 264 263 264 261 259 258 261 265 271 277 279 275 280 279 269 249 243 230 216 219 205 195 186 184 189 183 179 178 182 203 205 220 227 206 172 155 144 149 162 162 93
274 271 267 265 264 260 258 256 256 265 267 269 274 267 277 274 255 254 244 235 231 214 210 185 180 180 188 183 184 185 193 199 201 185 187 184 138 127 133 120 133 149 105
281 272 268 264 261 256 254 252 250 257 261 271 260 265 264 269 265 253 240 238 246 244 232 183 186 185 190 194 192 188 190 194 215 192 201 180 135 115 67 76 81 82 86
281 273 264 257 250 249 251 247 247 259 261 258 260 265 274 269 263 257 252 253 254 246 245 226 213 209 203 211 201 200 188 190 195 199 190 192 164 140 131 125 135 88 68
285 270 253 245 244 244 240 249 252 255 254 251 252 256 259 266 262 262 264 262 260 252 239 218 202 209 209 210 195 197 195 202 202 213 184 186 166 163 140 131 155 135 85
267 257 246 240 230 238 253 256 252 250 247 246 244 245 250 261 259 266 267 260 250 239 214 200 202 208 205 200 198 197 195 190 197 183 181 191 177 174 156 164 149 158 152
265 243 247 240 243 252 246 239 239 242 242 245 246 246 253 261 268 266 255 246 230 224 217 210 215 225 224 206 187 186 190 184 189 190 185 190 180 175 172 181 162 155 145
265 242 238 239 242 247 240 242 238 239 244 248 255 263 264 266 262 240 231 213 217 227 221 216 216 218 214 206 199 186 193 190 192 190 202 186 182 177 164 191 167 141 111